Location: STAR School
(35.3054°N, 111.2976°W)
Time: 04:42:37
(UTC-07:00)

Explorer 7 - All Passes

Search period start: 23 May 2019 00:00
Search period end: 02 June 2019 00:00
Orbit: 485 x 680 km, 50.3° (Epoch: 22 May)

Date Brightness Start Highest point End Pass type
(mag) Time Alt. Az. Time Alt. Az. Time Alt. Az.
23 May - 01:36:15 10° NNW 01:39:51 24° NNE 01:43:15 10° E visible
23 May - 03:16:30 10° NW 03:20:45 65° SW 03:24:42 10° SE visible
23 May - 18:54:03 10° SSW 18:58:44 47° SE 19:03:22 10° ENE daylight
23 May - 20:35:02 10° W 20:39:29 34° NNW 20:43:49 10° NE visible
23 May - 22:18:44 10° NW 22:21:13 14° NNW 22:23:39 10° NNE visible
24 May - 00:01:10 10° NNW 00:03:26 13° N 00:05:40 10° NE visible
24 May - 01:41:07 10° NW 01:45:10 33° NNE 01:48:58 10° E visible
24 May - 03:21:49 10° WNW 03:25:43 35° SW 03:29:23 10° SSE visible
24 May - 17:22:12 10° SE 17:23:44 11° SE 17:25:17 10° ESE daylight
24 May - 18:58:51 10° SW 19:03:45 77° SE 19:08:36 10° NE daylight
24 May - 20:40:46 10° W 20:44:47 25° NNW 20:48:42 10° NNE visible
24 May - 22:24:40 10° NNW 22:26:45 13° N 22:28:47 10° NNE visible
25 May - 00:06:05 10° NNW 00:08:56 16° NNE 00:11:41 10° NE visible
25 May - 01:46:03 10° NW 01:50:23 52° NE 01:54:26 10° ESE visible
25 May - 03:27:29 10° W 03:30:36 20° SW 03:33:35 10° S night (unlit)
25 May - 17:25:02 10° S 17:28:34 20° SE 17:32:06 10° E daylight
25 May - 19:03:58 10° WSW 19:08:51 67° NW 19:13:40 10° NE daylight
25 May - 20:46:40 10° WNW 20:50:10 19° NNW 20:53:37 10° NNE visible
25 May - 22:30:20 10° NNW 22:32:18 12° N 22:34:14 10° NNE visible
26 May - 00:10:58 10° NNW 00:14:23 20° NNE 00:17:39 10° ENE visible
26 May - 01:51:05 10° NW 01:55:31 87° NE 01:59:39 10° SE visible
26 May - 03:34:18 10° WSW 03:35:24 11° SW 03:36:30 10° SW night (unlit)
26 May - 17:29:06 10° SSW 17:33:28 33° SE 17:37:50 10° ENE daylight
26 May - 19:09:20 10° WSW 19:14:02 44° NNW 19:18:39 10° NE daylight
26 May - 20:52:39 10° NW 20:55:37 16° NNW 20:58:32 10° NNE visible
26 May - 22:35:39 10° NNW 22:37:51 13° N 22:40:01 10° NE visible
27 May - 00:15:50 10° NNW 00:19:45 27° NNE 00:23:28 10° E visible
27 May - 01:56:15 10° WNW 02:00:33 53° SW 02:04:35 10° SSE visible
27 May - 17:33:39 10° SSW 17:38:25 55° SE 17:43:13 10° ENE daylight
27 May - 19:14:56 10° W 19:19:17 31° NNW 19:23:34 10° NE daylight
27 May - 20:58:38 10° NW 21:01:08 14° N 21:03:35 10° NNE visible
27 May - 22:40:42 10° NNW 22:43:22 15° NNE 22:45:58 10° NE visible
28 May - 00:20:44 10° NW 00:25:02 39° NNE 00:29:05 10° ESE visible
28 May - 02:01:39 10° WNW 02:05:30 30° SW 02:09:08 10° SSE night (unlit)
28 May - 16:00:56 10° SSE 16:03:23 14° SE 16:05:51 10° E daylight
28 May - 17:38:34 10° SW 17:43:28 90° E 17:48:23 10° NE daylight
28 May - 19:20:42 10° WNW 19:24:37 23° NNW 19:28:29 10° NNE daylight
28 May - 21:04:28 10° NNW 21:06:40 13° N 21:08:50 10° NNE visible
28 May - 22:45:38 10° NNW 22:48:51 18° NNE 22:51:58 10° ENE visible
29 May - 00:25:42 10° NW 00:30:14 63° NE 00:34:28 10° ESE visible
29 May - 02:07:28 10° W 02:10:21 17° SW 02:13:07 10° SSW night (unlit)
29 May - 16:04:23 10° S 16:08:13 24° SE 16:12:06 10° ENE daylight
29 May - 17:43:45 10° WSW 17:48:35 58° NW 17:53:24 10° NE daylight
29 May - 19:26:37 10° WNW 19:30:01 18° NNW 19:33:23 10° NNE daylight
29 May - 21:10:01 10° NNW 21:12:13 13° N 21:14:25 10° NNE visible
29 May - 22:50:31 10° NNW 22:54:16 23° NNE 22:57:52 10° ENE visible
30 May - 00:30:46 10° NW 00:35:20 79° SW 00:39:35 10° SE visible
30 May - 16:08:38 10° SSW 16:13:07 39° SE 16:17:41 10° ENE daylight
30 May - 17:49:12 10° W 17:53:47 39° NNW 17:58:22 10° NE daylight
30 May - 19:32:36 10° NW 19:35:30 15° NNW 19:38:22 10° NNE daylight
30 May - 21:15:15 10° NNW 21:17:46 14° N 21:20:15 10° NE visible
30 May - 22:55:24 10° NW 22:59:37 31° NNE 23:03:36 10° E visible
31 May - 00:35:59 10° WNW 00:40:20 45° SW 00:44:24 10° SSE visible
31 May - 16:13:18 10° SW 16:18:06 66° SE 16:22:59 10° NE daylight
31 May - 17:54:51 10° W 17:59:04 28° NNW 18:03:17 10° NNE daylight
31 May - 19:38:32 10° NW 19:41:02 14° N 19:43:29 10° NNE daylight
31 May - 21:20:16 10° NNW 21:23:17 16° NNE 21:26:13 10° NE visible
31 May - 23:00:20 10° NW 23:04:52 47° NE 23:09:08 10° ESE visible
01 Jun - 00:41:29 10° WNW 00:45:14 26° SW 00:48:48 10° S visible
01 Jun - 14:40:03 10° SSE 14:43:01 16° SE 14:46:03 10° E daylight
01 Jun - 16:18:19 10° SW 16:23:10 78° NW 16:28:06 10° NE daylight
01 Jun - 18:00:40 10° WNW 18:04:26 21° NNW 18:08:12 10° NNE daylight
01 Jun - 19:44:16 10° NNW 19:46:34 13° N 19:48:52 10° NNE daylight
01 Jun - 21:25:12 10° NNW 21:28:44 20° NNE 21:32:10 10° ENE visible
01 Jun - 23:05:20 10° NW 23:10:01 75° NE 23:14:26 10° SE visible
